Temperature
26 23 22 23 24 25 25 26 26 26 27 25 23 22 22 21 21 20 19 19 19 19 19 18 18 18 18 18 18 18 18 18 18 18 18 18 18 18 17 17 17 17 17 16
23 23 25 26 27 27 27 26 26 26 26 24 22 22 21 21 20 20 19 19 19 18 18 18 18 18 18 18 18 18 18 18 18 18 18 18 18 17 17 17 17 17 16 16
23 25 27 27 27 27 27 26 26 26 24 23 22 21 20 20 20 20 20 19 19 19 18 18 18 17 18 18 18 18 18 18 18 18 18 17 17 17 17 17 17 17 16 16
24 26 27 27 27 28 26 27 27 26 23 20 21 19 19 19 19 19 19 19 19 18 18 18 18 18 18 18 18 18 18 17 18 18 18 18 17 17 17 17 17 17 16 16
24 26 26 26 27 28 27 26 25 23 21 19 19 19 19 19 19 19 19 19 19 19 18 18 18 18 18 18 18 18 17 17 17 18 18 18 18 17 17 17 17 17 16 16
25 26 27 27 28 28 27 24 22 19 18 19 19 19 18 18 19 19 19 19 19 19 18 18 18 18 18 18 18 17 17 17 17 17 17 17 17 17 17 17 17 17 16 16
24 26 27 27 26 26 26 23 21 21 19 19 19 19 18 20 20 20 19 19 19 19 18 18 18 18 18 18 18 18 18 17 17 17 17 17 17 17 17 17 17 17 17 17
23 23 25 27 26 25 25 23 22 21 20 19 18 19 19 21 21 21 20 20 19 19 19 19 18 18 18 18 18 18 18 18 17 18 17 17 17 17 17 17 17 17 17 17
23 23 26 28 28 27 25 23 22 20 20 18 18 19 19 21 21 20 20 19 19 19 19 19 19 19 18 18 18 18 18 18 18 18 17 17 17 17 17 17 17 17 17 17
23 23 25 27 27 27 25 23 21 20 20 20 19 19 18 20 20 20 19 19 19 20 19 19 19 19 19 19 19 18 18 18 18 18 18 18 18 18 17 17 17 17 17 17
23 22 23 24 25 25 25 24 21 19 19 19 19 19 20 19 19 19 19 20 20 20 20 20 20 20 19 19 19 19 19 18 18 18 18 18 18 18 18 17 17 17 17 17
22 21 21 22 24 25 24 23 21 21 20 19 18 19 21 19 19 20 20 21 21 21 21 21 20 20 20 19 19 19 19 19 19 18 18 18 18 18 18 17 17 17 17 17
22 20 20 21 21 22 23 22 20 19 18 18 19 20 20 19 20 20 21 21 21 21 21 21 21 20 20 20 19 19 19 19 19 19 18 18 18 18 18 18 17 17 17 17
22 19 20 20 20 20 21 22 21 19 18 19 19 20 19 19 19 19 20 21 20 20 20 20 20 20 20 20 20 20 20 19 19 19 18 18 18 18 18 18 17 17 17 17
19 18 19 20 21 21 21 22 22 21 20 20 20 20 19 19 19 19 20 20 19 19 19 19 20 20 20 20 20 20 20 19 19 18 18 18 18 18 18 17 17 17 17 17
17 18 18 19 21 21 22 22 23 22 22 21 21 20 19 19 19 19 19 18 18 18 18 18 18 19 19 19 19 19 18 18 18 18 18 18 17 17 17 17 17 17 16 16
16 17 17 17 19 20 20 20 21 21 21 21 20 19 18 18 18 18 17 17 16 16 17 17 17 17 18 18 18 18 17 17 17 17 17 16 16 16 16 16 16 16 16 15
16 15 15 16 18 19 19 19 20 20 21 21 20 19 18 17 16 17 17 16 15 15 16 16 16 16 16 16 16 16 16 16 16 16 15 15 15 15 15 15 15 15 15 14
15 15 15 15 16 17 19 18 17 18 18 19 19 18 17 16 15 14 15 16 15 15 15 15 15 15 15 15 15 15 15 15 15 14 14 14 14 14 14 14 14 13 13 13
14 14 14 14 16 17 17 17 17 18 17 18 18 17 17 16 15 13 14 14 15 15 15 14 14 14 14 14 14 14 14 14 13 13 13 13 13 13 13 13 13 13 12 12
14 14 14 14 15 16 16 16 17 17 17 17 17 17 16 15 15 14 14 14 14 14 14 14 14 14 13 13 14 13 13 12 12 12 12 12 12 12 12 12 12 12 12 11
14 14 14 14 15 15 16 16 16 16 16 16 16 16 15 14 13 13 13 14 14 13 13 14 13 13 13 13 13 13 12 11 11 12 12 11 11 11 11 11 11 11 11 11
13 13 13 14 14 14 15 15 15 16 15 16 15 15 15 14 13 13 13 13 13 13 13 13 13 12 12 12 12 12 11 11 11 11 11 11 11 11 11 11 11 11 11 11
14 14 13 13 14 14 15 15 16 16 16 16 15 15 14 13 13 13 13 13 13 13 13 13 13 12 12 12 11 11 11 11 11 11 11 11 11 11 11 11 11 10 10 10
14 14 14 14 14 14 15 15 15 15 15 15 14 14 14 13 13 13 13 13 13 13 13 12 12 12 11 11 11 11 11 11 11 11 10 10 10 10 10 10 10 10 10 9
14 14 14 14 14 13 14 15 15 15 14 14 14 13 13 13 13 13 13 13 13 12 12 12 12 12 11 11 11 11 11 10 10 10 10 10 10 10 10 9 9 9 9 8
Wind_Speed
5 1 8 12 11 13 13 11 8 6 3 5 5 5 5 5 6 6 7 7 8 8 7 8 9 10 9 10 11 11 11 10 9 7 7 7 6 5 4 4 7 8 7 7
6 10 16 13 15 16 14 9 5 2 5 6 6 4 2 4 6 8 8 7 8 7 8 8 10 10 9 10 10 10 11 11 9 7 6 5 6 4 4 3 5 7 7 6
11 14 12 14 16 13 11 6 4 2 5 6 4 2 2 1 2 5 7 7 7 10 11 11 11 11 11 12 12 12 10 10 9 8 6 6 5 4 3 2 2 4 7 7
10 14 14 15 15 11 9 5 1 3 4 3 4 1 6 3 2 4 5 6 7 8 10 10 11 11 12 12 11 11 10 9 8 8 8 9 7 5 5 4 4 3 6 6
9 9 10 13 13 11 7 1 4 4 5 4 4 2 6 2 3 4 5 6 8 10 11 12 12 11 11 11 11 11 10 9 8 8 9 9 6 5 4 4 5 4 3 5
14 13 10 12 15 11 3 4 6 6 6 4 2 1 6 4 5 4 4 6 8 10 11 11 10 9 9 9 10 10 11 9 8 8 7 8 8 7 6 6 6 4 3 2
12 14 12 10 12 12 5 3 4 6 5 2 3 2 8 8 5 6 8 8 8 10 11 11 12 11 10 11 11 11 11 10 9 8 7 8 8 9 9 7 7 6 4 4
8 11 9 7 8 8 7 5 6 4 4 2 3 5 8 8 4 3 7 8 9 10 11 13 13 12 12 12 12 12 12 10 10 9 8 7 7 6 6 7 6 7 6 6
10 11 9 8 7 4 4 4 7 7 3 3 4 5 8 3 0 2 6 8 9 11 12 12 12 12 13 13 13 14 14 12 11 10 9 7 7 7 7 7 6 6 5 6
10 8 11 9 4 4 5 6 5 5 4 3 3 4 5 4 4 4 7 9 10 10 11 13 13 13 12 12 12 12 13 12 11 10 10 9 8 8 7 6 6 6 6 6
5 7 8 4 5 8 3 3 5 5 6 6 5 6 7 10 9 9 10 10 11 12 12 13 12 12 11 11 12 13 13 12 11 11 10 9 8 8 7 7 7 7 6 7
1 4 5 8 7 5 6 7 8 6 4 6 6 7 4 9 9 10 10 10 10 11 12 12 12 11 10 11 12 13 13 13 12 11 10 9 7 7 7 7 7 6 6 6
4 4 3 8 8 7 2 2 5 6 5 5 6 5 2 4 6 7 8 9 9 10 10 10 11 11 11 10 11 11 11 12 11 10 9 7 6 6 6 6 5 5 4 5
3 3 4 5 7 5 5 5 3 6 5 5 8 7 5 6 6 5 6 7 8 7 8 7 7 8 8 9 9 10 9 9 9 8 7 6 5 4 3 2 2 2 3 3
5 2 2 5 6 3 5 7 5 5 8 8 9 11 12 12 10 7 7 9 9 8 7 7 7 6 6 6 5 6 6 5 7 7 6 5 3 3 3 2 2 2 2 3
4 1 3 4 4 4 6 7 6 6 5 5 7 7 7 7 6 6 8 11 11 10 10 9 9 9 8 8 8 8 7 7 8 8 6 4 4 3 3 2 2 2 1 0
1 2 1 4 5 5 5 4 3 3 3 7 9 9 10 9 9 8 10 13 13 12 11 11 11 11 10 10 10 11 10 10 10 9 8 7 6 5 5 5 5 4 3 3
4 3 3 2 2 7 6 2 2 2 2 3 6 10 14 12 10 8 9 14 14 13 13 12 11 11 10 11 11 11 11 12 12 10 9 8 8 7 6 6 5 4 3 4
3 5 3 3 5 6 4 3 2 2 3 1 11 17 18 18 16 11 9 13 15 14 12 11 11 11 11 11 11 12 12 11 12 10 9 7 7 7 7 6 5 4 4 4
3 3 4 4 4 6 4 3 2 1 2 0 11 18 18 12 8 7 9 14 16 14 13 13 12 13 13 10 11 13 12 11 10 8 7 6 7 7 6 5 4 4 4 4
2 1 3 5 5 6 2 3 2 4 5 3 7 12 9 4 8 14 15 15 15 15 13 12 13 12 10 9 11 13 11 9 7 6 6 6 6 5 5 4 4 4 5 5
4 3 3 4 4 5 1 0 3 4 2 7 8 8 13 17 19 17 16 15 15 14 13 12 13 11 8 8 11 11 9 6 6 7 6 5 4 4 4 4 3 4 4 5
5 4 3 4 4 3 2 2 3 2 5 7 10 13 20 21 19 17 15 14 13 13 11 10 12 11 8 8 9 10 6 6 7 7 6 5 5 4 4 3 3 3 3 3
3 2 2 2 2 4 2 0 1 3 7 10 15 17 19 21 19 17 15 13 12 10 10 9 11 10 8 7 7 7 6 6 7 7 5 5 5 5 5 4 3 3 2 3
4 2 2 2 2 3 3 1 4 8 13 17 18 16 16 20 19 16 14 12 11 10 8 9 9 9 8 6 6 5 6 6 7 6 6 5 5 5 5 4 3 3 2 3
3 4 3 3 3 2 0 3 10 15 16 18 19 16 14 16 16 15 12 10 10 10 9 9 8 8 7 6 5 4 5 6 6 5 5 4 4 4 4 4 5 8 7 9
Wind_Direction
287 290 257 255 242 238 263 276 283 294 341 89 109 129 154 153 148 159 163 166 165 165 168 161 160 163 166 155 153 154 152 148 142 141 142 142 143 147 143 150 147 133 124 112
313 272 260 268 274 271 271 278 278 334 47 93 103 113 174 160 176 178 177 178 170 159 160 167 165 167 169 167 162 160 159 154 155 153 151 149 145 152 155 153 150 144 135 127
235 256 275 284 288 286 283 262 241 172 80 62 91 11 310 259 174 183 176 179 177 172 168 170 170 170 172 175 170 169 166 159 158 150 133 123 105 98 106 143 160 161 147 137
244 259 271 280 284 288 290 277 162 100 85 29 52 316 288 275 257 207 184 181 184 173 169 172 175 175 178 179 173 166 168 163 159 150 148 149 149 160 182 180 178 173 160 152
248 264 280 285 285 296 287 351 64 73 97 68 24 78 292 290 253 227 197 194 186 179 175 176 177 176 179 178 173 169 168 165 162 157 158 155 155 168 166 162 165 174 175 173
248 261 257 266 282 286 266 60 46 50 69 44 300 170 275 251 227 209 197 192 183 177 176 175 176 173 176 176 173 171 168 171 171 165 165 166 166 164 159 166 173 184 191 197
266 271 267 265 280 297 319 71 14 349 18 253 270 236 255 257 240 205 194 186 177 174 176 178 179 179 180 179 178 175 172 175 177 175 177 178 172 166 170 175 181 182 191 205
235 272 255 246 228 241 266 159 175 219 223 222 284 250 263 276 270 201 183 174 172 175 178 181 183 183 185 185 182 177 177 180 182 183 188 184 175 169 177 183 184 191 200 207
207 241 248 242 250 223 230 218 178 147 135 132 246 277 304 298 277 159 164 170 184 184 184 182 182 184 188 189 186 182 180 183 186 188 189 191 186 183 188 191 192 197 206 211
193 236 262 256 280 294 189 168 103 124 155 192 235 249 239 241 210 200 189 187 191 185 183 184 187 189 191 191 187 184 183 186 187 191 194 198 198 199 199 197 205 207 207 206
188 208 276 302 226 235 251 147 132 140 155 156 202 248 220 205 199 196 200 193 189 188 189 189 190 193 193 190 187 188 189 187 191 195 198 200 201 203 203 205 213 213 211 201
284 167 251 265 267 230 201 188 154 158 205 164 174 250 244 198 200 195 197 192 188 189 195 192 188 187 187 188 188 191 192 192 195 196 197 201 203 202 207 216 219 213 213 207
341 90 17 340 340 352 343 188 151 137 133 155 168 237 247 192 194 198 191 186 183 185 193 191 185 187 182 182 186 189 192 195 195 191 192 197 200 200 207 216 220 213 213 214
55 84 153 213 245 265 290 279 187 135 157 187 198 194 207 198 192 177 172 169 162 164 170 165 168 173 171 174 177 179 187 190 183 174 176 184 194 189 192 199 202 213 209 207
62 70 277 253 251 236 254 266 229 195 186 180 199 184 200 199 186 167 146 133 125 131 132 136 137 137 139 139 141 139 142 144 152 149 155 169 161 155 152 147 185 203 199 202
67 104 336 310 314 312 290 277 253 226 194 189 170 200 205 178 139 121 124 125 121 116 111 106 103 100 100 106 109 106 106 105 107 111 113 114 110 108 95 87 80 74 73 142
116 118 335 278 301 329 280 272 267 252 203 172 190 198 159 147 140 139 131 122 119 116 111 105 99 95 94 92 98 100 98 97 96 96 95 92 89 87 87 88 75 68 64 77
168 157 178 235 325 251 243 298 318 276 273 207 176 149 137 124 105 90 111 120 114 110 105 100 99 95 89 89 90 92 89 90 90 85 82 82 84 84 77 73 69 64 65 70
169 160 168 181 223 261 289 318 23 18 323 83 138 133 124 115 91 70 82 105 110 108 103 98 96 96 91 89 91 91 86 87 89 87 84 81 83 83 77 72 65 58 61 54
48 119 158 185 206 230 232 300 322 51 276 192 141 143 142 130 124 135 119 109 106 101 99 98 94 91 88 87 92 91 88 86 85 87 88 86 86 85 79 70 62 54 61 62
336 351 186 195 222 251 253 300 344 188 220 179 151 145 134 97 125 132 122 110 107 104 102 99 95 90 88 89 91 90 88 86 89 89 84 79 81 89 86 69 63 71 70 64
229 220 210 185 207 240 269 278 193 213 201 153 133 118 106 108 113 120 119 115 112 108 104 102 100 94 88 87 90 88 85 87 82 77 71 64 58 64 77 75 65 71 84 80
227 214 213 212 225 263 248 233 275 211 138 127 127 123 126 125 126 125 121 120 116 114 111 107 106 100 91 87 91 91 87 82 74 65 54 44 41 38 43 64 68 64 71 82
256 221 219 261 284 289 290 279 288 149 125 125 128 133 134 129 129 127 125 122 119 118 116 112 107 105 100 95 94 98 93 82 73 62 46 38 38 26 26 35 52 64 63 69
247 220 223 250 266 317 342 98 138 115 113 120 122 127 130 128 128 126 125 123 121 118 113 112 112 112 113 106 97 93 88 79 68 55 43 36 35 33 29 30 42 62 65 111
238 207 191 216 212 159 244 91 117 115 118 122 122 118 118 122 123 122 120 119 119 116 114 114 115 118 119 112 99 87 85 84 74 49 33 32 31 31 38 42 43 49 67 74
Height
1501 1506 1509 1501 1499 1499 1497 1496 1495 1487 1477 1485 1491 1493 1492 1492 1494 1495 1496 1495 1496 1498 1500 1501 1503 1506 1508 1511 1516 1520 1524 1528 1532 1536 1539 1541 1544 1546 1547 1548 1549 1549 1549 1549
1506 1506 1494 1492 1490 1489 1490 1494 1492 1486 1480 1486 1494 1495 1492 1491 1492 1493 1494 1495 1495 1497 1499 1501 1503 1506 1507 1509 1515 1519 1524 1527 1531 1535 1538 1540 1543 1545 1547 1548 1549 1549 1549 1549
1506 1495 1488 1489 1488 1488 1486 1488 1487 1487 1488 1491 1495 1502 1497 1492 1491 1492 1493 1494 1495 1496 1498 1500 1502 1504 1508 1510 1514 1518 1523 1527 1531 1534 1537 1540 1542 1544 1546 1547 1548 1549 1549 1549
1497 1488 1488 1488 1487 1484 1490 1478 1478 1482 1495 1509 1503 1518 1503 1495 1493 1492 1492 1494 1495 1496 1497 1499 1501 1503 1507 1510 1514 1518 1522 1526 1530 1533 1535 1537 1540 1542 1544 1546 1547 1548 1549 1549
1493 1485 1486 1488 1482 1478 1481 1476 1480 1486 1498 1510 1509 1515 1508 1495 1495 1492 1491 1492 1493 1495 1496 1498 1500 1503 1506 1510 1514 1517 1522 1525 1529 1532 1535 1537 1540 1542 1544 1546 1547 1548 1548 1549
1483 1478 1479 1478 1473 1472 1473 1480 1488 1497 1507 1523 1516 1518 1513 1498 1492 1490 1490 1491 1492 1494 1496 1498 1501 1503 1506 1510 1513 1517 1520 1524 1527 1531 1534 1537 1539 1541 1543 1545 1546 1547 1548 1549
1487 1478 1472 1471 1474 1470 1472 1492 1512 1517 1526 1527 1514 1515 1509 1488 1485 1486 1488 1489 1491 1493 1495 1497 1500 1502 1505 1508 1512 1515 1519 1522 1526 1529 1532 1535 1538 1540 1541 1543 1545 1546 1547 1548
1496 1492 1471 1465 1469 1475 1474 1485 1511 1523 1526 1526 1517 1516 1499 1483 1482 1483 1485 1487 1489 1491 1494 1496 1499 1501 1504 1507 1510 1514 1517 1521 1524 1527 1531 1533 1536 1539 1540 1542 1544 1545 1546 1548
1487 1484 1461 1458 1458 1462 1474 1480 1483 1502 1512 1527 1521 1509 1494 1482 1482 1483 1485 1486 1488 1489 1491 1494 1497 1500 1503 1505 1508 1512 1515 1519 1522 1525 1529 1532 1534 1537 1539 1540 1542 1544 1545 1547
1469 1479 1463 1455 1455 1457 1461 1469 1486 1500 1517 1524 1521 1513 1506 1489 1485 1484 1484 1485 1487 1488 1490 1492 1495 1498 1501 1504 1507 1510 1514 1517 1520 1523 1527 1529 1532 1534 1537 1539 1540 1542 1544 1545
1463 1476 1470 1462 1464 1466 1464 1469 1480 1494 1500 1517 1526 1512 1483 1481 1479 1480 1481 1482 1483 1486 1488 1490 1493 1496 1499 1502 1505 1508 1512 1515 1518 1521 1524 1527 1530 1532 1535 1537 1538 1540 1541 1542
1462 1472 1480 1470 1456 1451 1455 1463 1474 1491 1496 1500 1509 1503 1471 1473 1473 1475 1477 1479 1481 1484 1486 1488 1491 1494 1497 1500 1502 1505 1509 1513 1516 1519 1522 1525 1528 1530 1532 1534 1536 1537 1539 1540
1462 1474 1487 1482 1474 1463 1462 1461 1466 1476 1488 1498 1505 1495 1470 1470 1471 1472 1474 1476 1479 1482 1484 1487 1489 1492 1495 1498 1500 1504 1507 1511 1514 1518 1520 1523 1526 1528 1529 1531 1533 1535 1536 1537
1460 1474 1484 1491 1484 1474 1471 1464 1464 1473 1487 1491 1487 1482 1474 1470 1469 1470 1472 1474 1477 1480 1482 1484 1487 1490 1493 1496 1499 1501 1505 1509 1512 1516 1518 1521 1523 1525 1526 1529 1530 1531 1532 1533
1464 1477 1475 1472 1466 1465 1465 1462 1460 1465 1469 1477 1474 1472 1468 1465 1466 1468 1470 1473 1477 1480 1481 1484 1486 1489 1492 1495 1498 1501 1503 1507 1510 1513 1515 1518 1520 1522 1523 1525 1526 1526 1528 1529
1468 1474 1474 1472 1464 1462 1462 1457 1455 1456 1457 1462 1464 1468 1460 1462 1466 1469 1471 1473 1476 1479 1482 1484 1486 1488 1491 1494 1497 1500 1502 1504 1507 1509 1512 1516 1518 1519 1520 1521 1522 1523 1523 1524
1471 1475 1478 1479 1469 1464 1468 1459 1457 1455 1452 1455 1462 1460 1457 1463 1466 1469 1472 1474 1476 1480 1482 1484 1487 1489 1490 1493 1496 1499 1501 1504 1506 1509 1511 1513 1515 1516 1517 1518 1518 1519 1519 1519
1469 1474 1479 1480 1475 1480 1463 1454 1451 1450 1447 1446 1448 1451 1455 1461 1467 1470 1472 1473 1477 1481 1484 1486 1489 1491 1493 1495 1497 1500 1502 1504 1506 1508 1510 1512 1514 1515 1516 1516 1516 1517 1517 1517
1462 1469 1477 1482 1481 1471 1458 1453 1453 1454 1452 1447 1446 1452 1457 1462 1467 1475 1477 1477 1480 1483 1486 1489 1492 1494 1496 1498 1500 1502 1504 1506 1508 1510 1512 1513 1514 1515 1515 1515 1515 1515 1515 1515
1463 1465 1474 1478 1478 1474 1460 1452 1449 1453 1458 1449 1447 1450 1454 1458 1470 1479 1480 1481 1483 1486 1489 1492 1495 1498 1500 1502 1504 1504 1506 1508 1510 1512 1513 1514 1515 1515 1515 1515 1514 1514 1514 1514
1470 1470 1472 1474 1474 1463 1453 1450 1450 1462 1457 1450 1449 1450 1454 1458 1464 1475 1480 1483 1487 1490 1493 1496 1498 1501 1504 1506 1507 1507 1509 1510 1512 1513 1514 1515 1515 1515 1515 1515 1514 1514 1514 1513
1471 1471 1469 1469 1470 1465 1450 1449 1452 1451 1447 1447 1450 1453 1457 1461 1470 1477 1481 1485 1490 1493 1496 1499 1501 1504 1507 1509 1510 1510 1511 1513 1514 1515 1515 1516 1516 1515 1515 1515 1514 1514 1514 1513
1466 1464 1462 1461 1459 1450 1446 1446 1447 1446 1446 1447 1450 1456 1459 1464 1472 1479 1484 1488 1493 1497 1500 1502 1504 1506 1509 1512 1512 1512 1514 1515 1515 1516 1516 1516 1516 1516 1515 1515 1514 1513 1513 1512
1460 1457 1458 1455 1451 1448 1445 1444 1445 1446 1445 1448 1452 1459 1463 1467 1474 1482 1487 1491 1495 1500 1503 1505 1507 1508 1511 1513 1514 1515 1516 1517 1516 1516 1516 1516 1516 1516 1515 1514 1513 1512 1511 1510
1457 1456 1455 1453 1450 1448 1446 1446 1446 1446 1447 1451 1457 1462 1467 1470 1477 1484 1489 1494 1498 1502 1505 1507 1509 1511 1513 1515 1516 1517 1518 1518 1517 1517 1517 1516 1515 1515 1514 1513 1512 1511 1510 1508
1453 1453 1453 1453 1449 1449 1449 1448 1448 1449 1453 1456 1461 1468 1474 1477 1482 1488 1493 1497 1501 1504 1507 1509 1511 1513 1515 1517 1518 1518 1518 1518 1518 1517 1516 1516 1515 1514 1513 1512 1511 1509 1508 1507